Santa Ynez, CA

9:16 PM PDT on March 24, 2017 (GMT -0700)
Santa Ynez

Weather History for KIZA - August, 2014

Change the Weather History Date:

Monday, August 18, 2014

  Actual Average (KSBA) Record (KSBA)
Temperature  
Mean Temperature 71 °F -  
Max Temperature 89 °F 74 °F 90 °F (1945)
Min Temperature 53 °F 59 °F 49 °F (1960)
Cooling Degree Days 6    
Growing Degree Days 21 (Base 50)    
Moisture  
Dew Point 53 °F    
Average Humidity 70    
Maximum Humidity 94    
Minimum Humidity 21    
Precipitation  
Precipitation 0.00 in - - ()
Sea Level Pressure  
Sea Level Pressure 29.88 in    
Wind  
Wind Speed 4 mph (West)    
Max Wind Speed 15 mph    
Max Gust Speed 18 mph    
Visibility 9 miles    
Events      
Averages and records for this station are not official NWS values.
T = Trace of Precipitation, MM = Missing Value Source: NWS Daily Summary

Daily Weather History Graph

Daily Weather History Graph

Search for Another Location

Airport or City:

Trip Planner

Search our weather history database for the weather conditions in past years. The results will help you decide how hot, cold, wet, or windy it might be!

Date:

Astronomy

Aug. 18, 2014 Rise Set
Actual Time 6:23 AM PDT 7:44 PM PDT
Civil Twilight 5:56 AM PDT 8:10 PM PDT
Nautical Twilight 5:25 AM PDT 8:42 PM PDT
Astronomical Twilight 4:52 AM PDT 9:15 PM PDT
Moon 12:37 AM PDT (8/18) 2:48 PM PDT (8/18)
Length of Visible Light 14h 14m
Length of Day
13h 21m
Last Quarter, 37% of the Moon is Illuminated
Aug 18
Last Quarter
Aug 25
New
Sep 2
First Quarter
Sep 8
Full
Sep 15
Last Quarter

Hourly Weather History & Observations

Time (PDT) Temp. Heat Index Dew Point Humidity Pressure Visibility Wind Dir Wind Speed Gust Speed Precip Events Conditions
12:15 AM 55.4 °F - 51.8 °F 88% 29.92 in 10.0 mi WSW 3.5 mph - N/A   Clear
12:35 AM 53.6 °F - 51.8 °F 94% 29.92 in 10.0 mi WSW 3.5 mph - N/A   Clear
12:55 AM 55.4 °F - 53.6 °F 94% 29.92 in 10.0 mi West 3.5 mph - N/A   Mostly Cloudy
1:15 AM 55.4 °F - 53.6 °F 94% 29.92 in 7.0 mi Calm Calm - N/A   Overcast
1:35 AM 55.4 °F - 53.6 °F 94% 29.91 in 3.0 mi Calm Calm - N/A   Overcast
1:55 AM 55.4 °F - 53.6 °F 94% 29.91 in 3.0 mi Calm Calm - N/A   Overcast
2:15 AM 55.4 °F - 53.6 °F 94% 29.90 in 10.0 mi Calm Calm - N/A   Overcast
2:35 AM 55.4 °F - 53.6 °F 94% 29.91 in 10.0 mi Calm Calm - N/A   Overcast
2:55 AM 55.4 °F - 53.6 °F 94% 29.91 in 10.0 mi Calm Calm - N/A   Overcast
3:15 AM 55.4 °F - 53.6 °F 94% 29.92 in 10.0 mi Calm Calm - N/A   Overcast
3:35 AM 55.4 °F - 53.6 °F 94% 29.91 in 7.0 mi Calm Calm - N/A   Overcast
3:55 AM 55.4 °F - 53.6 °F 94% 29.91 in 10.0 mi Calm Calm - N/A   Overcast
4:15 AM 55.4 °F - 53.6 °F 94% 29.91 in 5.0 mi Calm Calm - N/A   Overcast
4:35 AM 55.4 °F - 53.6 °F 94% 29.90 in 7.0 mi Calm Calm - N/A   Overcast
4:55 AM 55.4 °F - 53.6 °F 94% 29.90 in 5.0 mi Calm Calm - N/A   Overcast
5:15 AM 55.4 °F - 53.6 °F 94% 29.91 in 7.0 mi NE 3.5 mph - N/A   Overcast
5:35 AM 55.4 °F - 53.6 °F 94% 29.90 in 7.0 mi Calm Calm - N/A   Overcast
5:55 AM 55.4 °F - 53.6 °F 94% 29.91 in 5.0 mi Calm Calm - N/A   Overcast
6:15 AM 55.4 °F - 53.6 °F 94% 29.91 in 7.0 mi Calm Calm - N/A   Overcast
6:35 AM 55.4 °F - 53.6 °F 94% 29.91 in 4.0 mi ESE 3.5 mph - N/A   Overcast
6:55 AM 55.4 °F - 53.6 °F 94% 29.91 in 2.5 mi Calm Calm - N/A   Overcast
7:15 AM 55.4 °F - 53.6 °F 94% 29.92 in 1.8 mi East 3.5 mph - N/A   Overcast
7:35 AM 55.4 °F - 53.6 °F 94% 29.91 in 4.0 mi Calm Calm - N/A   Overcast
7:55 AM 55.4 °F - 53.6 °F 94% 29.91 in 5.0 mi Calm Calm - N/A   Overcast
8:15 AM 55.4 °F - 53.6 °F 94% 29.91 in 4.0 mi Calm Calm - N/A   Overcast
8:35 AM 55.4 °F - 53.6 °F 94% 29.91 in 10.0 mi Calm Calm - N/A   Overcast
8:55 AM 57.2 °F - 53.6 °F 88% 29.92 in 10.0 mi Calm Calm - N/A   Overcast
9:15 AM 59.0 °F - 53.6 °F 82% 29.91 in 10.0 mi Calm Calm - N/A   Scattered Clouds
9:35 AM 60.8 °F - 53.6 °F 77% 29.92 in 10.0 mi Calm Calm - N/A   Clear
10:15 AM 66.2 °F - 53.6 °F 64% 29.91 in 10.0 mi West 3.5 mph - N/A   Clear
10:35 AM 69.8 °F - 53.6 °F 56% 29.91 in 10.0 mi WSW 5.8 mph - N/A   Clear
10:55 AM 71.6 °F - 53.6 °F 53% 29.91 in 10.0 mi West 4.6 mph - N/A   Clear
11:15 AM 73.4 °F - 53.6 °F 50% 29.90 in 10.0 mi West 4.6 mph - N/A   Clear
11:35 AM 77.0 °F - 51.8 °F 41% 29.90 in 10.0 mi West 5.8 mph - N/A   Clear
11:55 AM 78.8 °F - 51.8 °F 39% 29.89 in 10.0 mi West 8.1 mph - N/A   Clear
12:15 PM 82.4 °F - 50.0 °F 32% 29.88 in 10.0 mi West 8.1 mph - N/A   Clear
12:35 PM 86.0 °F - 48.2 °F 27% 29.87 in 10.0 mi WNW 8.1 mph - N/A   Clear
12:55 PM 86.0 °F - 44.6 °F 23% 29.86 in 10.0 mi WNW 9.2 mph - N/A   Clear
1:15 PM 87.8 °F - 42.8 °F 21% 29.85 in 10.0 mi WNW 8.1 mph - N/A   Clear
1:35 PM 89.6 °F - 44.6 °F 21% 29.85 in 10.0 mi West 6.9 mph - N/A   Clear
1:55 PM 89.6 °F - 44.6 °F 21% 29.84 in 10.0 mi WNW 8.1 mph - N/A   Clear
2:15 PM 89.6 °F - 46.4 °F 22% 29.83 in 10.0 mi WNW 10.4 mph - N/A   Clear
2:55 PM 89.6 °F - 50.0 °F 26% 29.82 in 10.0 mi West 12.7 mph 16.1 mph N/A   Clear
3:15 PM 89.6 °F - 51.8 °F 27% 29.82 in 10.0 mi West 13.8 mph - N/A   Clear
3:35 PM 87.8 °F - 51.8 °F 29% 29.82 in 10.0 mi West 15.0 mph - N/A   Clear
3:55 PM 87.8 °F 85.7 °F 53.6 °F 31% 29.81 in 10.0 mi WNW 12.7 mph 18.4 mph N/A   Clear
4:15 PM 86.0 °F 84.2 °F 53.6 °F 33% 29.81 in 10.0 mi WNW 13.8 mph - N/A   Clear
4:35 PM 84.2 °F - 51.8 °F 33% 29.81 in 10.0 mi WNW 11.5 mph - N/A   Clear
4:55 PM 82.4 °F 81.4 °F 53.6 °F 37% 29.82 in 10.0 mi West 13.8 mph - N/A   Clear
5:15 PM 82.4 °F 81.4 °F 53.6 °F 37% 29.82 in 10.0 mi West 12.7 mph - N/A   Clear
5:35 PM 80.6 °F 80.3 °F 53.6 °F 39% 29.82 in 10.0 mi West 11.5 mph - N/A   Clear
5:55 PM 77.0 °F - 53.6 °F 44% 29.82 in 10.0 mi West 12.7 mph - N/A   Clear
6:15 PM 75.2 °F - 53.6 °F 47% 29.83 in 10.0 mi West 10.4 mph - N/A   Clear
6:35 PM 73.4 °F - 55.4 °F 53% 29.83 in 10.0 mi WNW 13.8 mph - N/A   Clear
6:55 PM 69.8 °F - 55.4 °F 60% 29.83 in 10.0 mi WNW 11.5 mph - N/A   Clear
7:15 PM 68.0 °F - 55.4 °F 64% 29.84 in 10.0 mi WNW 12.7 mph - N/A   Clear
7:35 PM 64.4 °F - 55.4 °F 73% 29.85 in 10.0 mi WNW 10.4 mph - N/A   Clear
7:55 PM 64.4 °F - 55.4 °F 73% 29.85 in 10.0 mi West 5.8 mph - N/A   Clear
8:15 PM 62.6 °F - 55.4 °F 77% 29.86 in 10.0 mi WNW 4.6 mph - N/A   Clear
8:35 PM 60.8 °F - 55.4 °F 82% 29.87 in 10.0 mi West 6.9 mph - N/A   Clear
8:55 PM 60.8 °F - 55.4 °F 82% 29.87 in 10.0 mi West 4.6 mph - N/A   Clear
9:15 PM 60.8 °F - 55.4 °F 82% 29.87 in 10.0 mi West 5.8 mph - N/A   Clear
9:35 PM 59.0 °F - 53.6 °F 82% 29.87 in 10.0 mi SW 3.5 mph - N/A   Clear
9:55 PM 59.0 °F - 53.6 °F 82% 29.88 in 10.0 mi Calm Calm - N/A   Clear
10:15 PM 59.0 °F - 53.6 °F 82% 29.87 in 10.0 mi Calm Calm - N/A   Clear
10:35 PM 59.0 °F - 53.6 °F 82% 29.87 in 10.0 mi WSW 3.5 mph - N/A   Clear
10:55 PM 57.2 °F - 53.6 °F 88% 29.87 in 10.0 mi Calm Calm - N/A   Clear
11:15 PM 57.2 °F - 53.6 °F 88% 29.87 in 10.0 mi Calm Calm - N/A   Clear
11:35 PM 55.4 °F - 53.6 °F 94% 29.87 in 10.0 mi SW 3.5 mph - N/A   Clear
11:55 PM 55.4 °F - 53.6 °F 94% 29.87 in 10.0 mi Calm Calm - N/A   Clear